Regional Weather Roundup
Issued by NWS

Home | Current Version | Previous Version | Graphics & Text | Print | Product List | Glossary On
Versions: 1 2 3 4 5 6 7 8 9 10 11 12 13 14 15 16 17 18 19 20 21 22 23 24 25 26 27 28 29 30 31 32 33 34 35 36 37 38 39 40 41 42 43 44 45 46 47 48 49 50
963
ASUS43 KLMK 241702
RWRKY
KENTUCKY REGIONAL WEATHER ROUNDUP
NATIONAL WEATHER SERVICE LOUISVILLE KY
100 PM EDT FRI MAR 24 2017

NOTE "FAIR" INDICATES FEW OR NO CLOUDS BELOW 12,000 FEET
WITH NO SIGNIFICANT WEATHER AND/OR OBSTRUCTIONS TO VISIBILITY.

KYZ001>023-026-027-061>063-070>075-241800-
WESTERN AND SOUTH CENTRAL KENTUCKY

CITY           SKY/WX    TMP DP  RH WIND       PRES   REMARKS
PADUCAH        CLOUDY    70  56  61 S14G25    30.17S
HENDERSON      PTSUNNY   70  55  60 S22G31    30.17R
OWENSBORO      MOSUNNY   75  57  53 S21G28    30.18F
HOPKINSVILLE   MOSUNNY   74  55  51 S20G30    30.20F
BOWLING GREEN  SUNNY     73  53  49 S18G32    30.25F
GLASGOW        NOT AVBL
$$

KYZ024-025-028>034-038-045-046-053-241800-
NORTH CENTRAL KENTUCKY

CITY           SKY/WX    TMP DP  RH WIND       PRES   REMARKS
LOUISVILLE/SDF MOSUNNY   76  50  40 SW18      30.19F
LOUISVILLE/LOU SUNNY     75  53  46 S13G18    30.20F
FORT KNOX      SUNNY     73  53  49 S16G25    30.20F
$$

KYZ035>037-039>044-047>052-055>060-089>105-241800-
NORTHEAST KENTUCKY

CITY           SKY/WX    TMP DP  RH WIND       PRES   REMARKS
LEXINGTON      CLOUDY    70  51  51 SW18      30.26F
COVINGTON      PTSUNNY   68  51  54 S17G24    30.20F
FRANKFORT      SUNNY     73  50  44 SW17G28   30.23F
$$

KYZ054-064>069-076>088-106>120-241800-
SOUTHEAST KENTUCKY

CITY           SKY/WX    TMP DP  RH WIND       PRES   REMARKS
JACKSON        MOSUNNY   74  50  42 S9G16     30.30S
LONDON         CLOUDY    69  45  41 SW15G22   30.31F
SOMERSET       NOT AVBL
MIDDLESBORO    SUNNY     68  46  46 S13G21    30.35F
MONTICELLO     CLOUDY    71  52  50 SW10G29   30.32S
$$





USA.gov is the U.S. government's official web portal to all federal, state and local government web resources and services.